Regional Weather Roundup
Issued by NWS Cleveland, OH

Home | Current Version | Previous Version | Graphics & Text | Print | Product List | Glossary On
Versions: 1 2 3 4 5 6 7 8 9 10 11 12 13 14 15 16 17 18 19 20 21 22 23 24 25 26 27 28 29 30 31 32 33 34 35 36 37 38 39 40 41 42 43 44 45 46 47 48 49 50
000
ASUS41 KCLE 190210
RWRCLE
OHIO REGIONAL WEATHER ROUNDUP
NATIONAL WEATHER SERVICE WILMINGTON, OH
900 PM EST THU DEC 18 2014

NOTE: "FAIR" INDICATES FEW OR NO CLOUDS BELOW 12,000 FEET WITH NO
SIGNIFICANT WEATHER AND/OR OBSTRUCTIONS TO VISIBILITY.

OHZ001>008-015>018-024>027-034-035-043-044-190300-
   NORTHWEST OHIO

CITY           SKY/WX    TMP DP  RH WIND       PRES   REMARKS
DEFIANCE       CLOUDY    29  24  82 CALM      30.22S
FINDLAY        CLOUDY    29  25  85 W8        30.19F WCI  21
TOLEDO EXPRESS CLOUDY    28  25  86 W9        30.19F WCI  20
TOLEDO METCALF CLOUDY    31  25  78 W9        30.20S WCI  23
LIMA           CLOUDY    30  23  75 W7        30.20S WCI  23
$$

OHZ009>014-019>023-028>033-038-089-190300-
   NORTHEAST OHIO

CITY           SKY/WX    TMP DP  RH WIND       PRES   REMARKS
CLE-HOPKINS    LGT SNOW  29  26  89 W9        30.19S FOG     WCI  20
CLE-LAKEFRONT  CLOUDY    31  27  85 SW12      30.16F WCI  22
CUY CO. ARPT   LGT SNOW  32  28  86 W12       30.15F WCI  23
LORAIN-ELYRIA  CLOUDY    29  26  89 W8        30.18S WCI  21
ASHTABULA      LGT SNOW  30  28  92 CALM      30.13F FOG
AKRON-CANTON   CLOUDY    28  24  85 W6        30.15S FOG     WCI  22
WOOSTER        CLOUDY    27  25  92 W8        30.16F WCI  19
MANSFIELD      CLOUDY    27  25  92 W6        30.16S WCI  20
YOUNGSTOWN     FRZ DRZL  28  25  88 SW8       30.12F WCI  20
$$

OHZ042-051>053-060>062-070>072-077>081-190300-
  SOUTHWEST OHIO

CITY           SKY/WX    TMP DP  RH WIND       PRES   REMARKS
CINC-COVINGTON CLOUDY    28  20  71 CALM      30.22S
CINC-LUNKEN    CLOUDY    29  22  75 CALM      30.26S
HAMILTON       CLOUDY    29  22  75 W3        30.25S
DAYTON         CLOUDY    28  22  78 NW5       30.22S WCI  23
WRIGHT-PAT AFB CLOUDY    28  22  77 NW3       30.22S
DAYTON GENERAL CLOUDY    28  21  75 NW5       30.21S WCI  23
WILMINGTON     CLOUDY    27  19  72 W6        30.21R WCI  20
$$

OHZ036-037-039>041-045>050-054>059-063>069-073>076-082>088-190300-
  CENTRAL AND SOUTHEAST OHIO

CITY           SKY/WX    TMP DP  RH WIND       PRES   REMARKS
COLUMBUS       CLOUDY    28  21  75 W7        30.21S WCI  21
OSU AIRPORT    CLOUDY    28  22  78 W5        30.20S WCI  23
BOLTON FIELD   CLOUDY    28  23  84 CALM      30.21S
RICKENBACK AFB CLOUDY    28  23  79 CALM      30.21S
NEWARK         CLOUDY    29  22  75 W5        30.20S WCI  24
MARION         CLOUDY    28  23  81 W9        30.19F HAZE    WCI  19
LANCASTER      CLOUDY    29  23  78 CALM      30.21S
ZANESVILLE     CLOUDY    26  23  88 SW3       30.19F
NEW PHILLY     CLOUDY    29  22  75 W3        30.18F
$$


USA.gov is the U.S. government's official web portal to all federal, state and local government web resources and services.